Torna al catalogo

STARLINK-5805

AttivoComunicazioniVLEO
NORAD 56912·PAYLOAD·🇺🇸 United States

Lanciato Jun 12, 2023 da Cape Canaveral Space Force Station

Loading…

Prossimi Passaggi (prossime 24 ore)

TLE

AggiornatoSource: CelesTrak SupGP

Epoca: Sep 14, 2026, 22:09 UTC

1 56912C 23083AN  26257.92340278  .00031686  00000+0  11483-2 0  2575
2 56912  43.0032  82.1381 0001430 276.6998 214.0749 15.27545427    15

Traccia STARLINK-5805 in tempo reale con AllMySat

Download on the App Store